This demonstration page uses our WeatherBlox Daily Observations layout. Learn more.

41.55636, -103.73856

Hourly Observations for November 1, 2019

Temp ( °F °C ) Dew Point ( °F °C ) Humidity (%) Winds ( mph kmh ) Pressure ( in mb ) Visibility ( mi km ) Precip ( " mm )
12:58 am 00:58 Mostly Cloudy 36 2 17 -8.2 47 47 W 8 13 30.22 1023 10 16.0934 0 0
1:58 am 01:58 Mostly Cloudy 32 0.1 19 -7.1 59 59 W 7 11 30.24 1024 10 16.0934 0 0
2:58 am 02:58 Mostly Cloudy 31 -0.6 19 -7.2 61 61 W 7 11 30.22 1023 10 16.0934 0 0
3:58 am 03:58 Mostly Cloudy 33 0.5 17 -8.3 52 52 WSW 6 9 30.19 1023 10 16.0934 0 0
5:58 am 05:58 Mostly Cloudy 33 0.7 17 -8.5 51 51 W 3 6 30.19 1022 10 16.0934 0 0
6:58 am 06:58 Mostly Cloudy 33 0.4 18 -7.7 55 55 N 9 15 30.18 1022 10 16.0934 0 0
7:58 am 07:58 Mostly Cloudy 34 0.9 22 -5.5 63 63 N 10 17 30.18 1022 10 16.0934 0 0
8:58 am 08:58 Mostly Clear 31 -0.7 24 -4.7 75 75 N 10 17 30.22 1024 10 16.0934 0 0
9:58 am 09:58 Mostly Cloudy with Light Snow Showers 31 -0.8 26 -3.6 82 82 NW 8 13 30.25 1025 10 16.0934 0 0
10:58 am 10:58 Cloudy with Light Snow Showers 30 -1.2 28 -2 94 94 WNW 8 13 30.27 1025 5 8.0467 0 0
11:58 am 11:58 Mostly Cloudy with Scattered Snow Showers 30 -1.1 29 -1.7 96 96 NW 9 15 30.32 1027 3 4.82802 0 0
12:58 pm 12:58 Mostly Cloudy with Scattered Snow Showers 30 -1.1 29 -1.5 97 97 NW 16 26 30.34 1027 5 8.0467 0 0
1:58 pm 13:58 Mostly Cloudy with Scattered Snow Showers 30 -1 28 -2.4 90 90 NNW 17 28 30.37 1029 10 16.0934 0 0
2:58 pm 14:58 Mostly Cloudy with Scattered Snow Showers 31 -0.6 29 -1.6 93 93 NNW 16 26 30.42 1030 6 9.65604 0 0
4:58 pm 16:58 Mostly Cloudy 33 0.4 25 -4 73 73 NNW 22 35 30.44 1031 10 16.0934 0 0
5:59 pm 17:59 Mostly Sunny 35 1.4 22 -5.4 61 61 NNW 23 37 30.43 1031 10 16.0934 0 0
6:58 pm 18:58 Mostly Cloudy 36 2 23 -5.1 60 60 NW 24 39 30.42 1030 10 16.0934 0 0
7:58 pm 19:58 Partly Cloudy 36 2.4 21 -6.2 53 53 NNW 23 37 30.42 1030 10 16.0934 0 0
8:58 pm 20:58 Mostly Sunny 36 2 21 -6.2 55 55 NNW 23 37 30.42 1030 10 16.0934 0 0
9:58 pm 21:58 Mostly Sunny 36 2.4 20 -6.5 52 52 NNW 21 33 30.43 1031 10 16.0934 0 0
10:58 pm 22:58 Mostly Sunny 35 1.5 19 -7.3 52 52 NNW 21 33 30.45 1031 10 16.0934 0 0
11:58 pm 23:58 Clear 30 -1.1 20 -6.9 65 65 NNW 8 13 30.49 1032 10 16.0934 0 0

Powered by AerisWeather